Weather History for Plymouth, MA

Change the Weather History Date:

Tuesday, July 23, 2013

  Actual Average Record
Temperature  
Mean Temperature 76 °F -  
Max Temperature 84 °F 81 °F 100 °F (1952)
Min Temperature 69 °F 60 °F 49 °F (1976)
Cooling Degree Days 12    
Growing Degree Days 26 (Base 50)    
Moisture  
Dew Point 71 °F    
Average Humidity 87    
Maximum Humidity 100    
Minimum Humidity 66    
Precipitation  
Precipitation 0.36 in - - ()
Sea Level Pressure  
Sea Level Pressure 29.69 in    
Wind  
Wind Speed 5 mph (South)    
Max Wind Speed 18 mph    
Max Gust Speed 28 mph    
Visibility 6 miles    
Events Fog , Rain , Thunderstorm    
Averages and records for this station are not official NWS values.
T = Trace of Precipitation, MM = Missing Value Source: NWS Daily Summary

Daily Weather History Graph

Daily Weather History Graph

Search for Another Location

Airport:

Trip Planner

Search our weather history database for the weather conditions in past years. The results will help you decide how hot, cold, wet, or windy it might be!

Date:

Astronomy

Jul. 23, 2013 Rise Set
Actual Time 5:28 AM EDT 8:10 PM EDT
Civil Twilight 4:55 AM EDT 8:42 PM EDT
Nautical Twilight 4:14 AM EDT 9:23 PM EDT
Astronomical Twilight 3:28 AM EDT 10:09 PM EDT
Moon 8:33 PM EDT (7/23) 6:34 AM EDT (7/23)
Length of Visible Light 15h 46m
Length of Day
14h 42m
Full, 99% of the Moon is Illuminated
Jul 23
Full
Jul 29
Last Quarter
Aug 6
New
Aug 14
First Quarter
Aug 20
Full

Hourly Weather History & Observations

Time (EDT) Temp. Heat Index Dew Point Humidity Pressure Visibility Wind Dir Wind Speed Gust Speed Precip Events Conditions
12:11 AM 69.8 °F - 68.0 °F 94% 29.89 in 0.2 mi East 4.6 mph - N/A Fog Fog
12:30 AM 69.8 °F - 68.0 °F 94% 29.88 in 0.5 mi East 3.5 mph - N/A Fog Fog
12:52 AM 70.0 °F - 68.0 °F 93% 29.87 in 0.5 mi ESE 3.5 mph - N/A Fog Fog
1:02 AM 69.8 °F - 68.0 °F 94% 29.86 in 0.2 mi Calm Calm - N/A Fog Fog
1:47 AM 69.8 °F - 68.0 °F 94% 29.84 in 0.5 mi Calm Calm - N/A Fog Fog
1:52 AM 70.0 °F - 69.1 °F 97% 29.83 in 0.5 mi Calm Calm - N/A Fog Fog
2:52 AM 71.1 °F - 69.1 °F 93% 29.81 in 0.8 mi Calm Calm - 0.00 in   Mist
3:52 AM 71.1 °F - 69.1 °F 93% 29.78 in 0.2 mi East 3.5 mph - N/A Fog Fog
4:03 AM 71.6 °F - 69.8 °F 94% 29.78 in 0.5 mi East 4.6 mph - N/A Fog Fog
4:14 AM 71.6 °F - 69.8 °F 94% 29.77 in 0.2 mi East 3.5 mph - N/A Fog Fog
4:52 AM 71.1 °F - 70.0 °F 96% 29.76 in 0.5 mi East 3.5 mph - N/A Fog Fog
5:06 AM 71.6 °F - 69.8 °F 94% 29.76 in 0.2 mi ESE 3.5 mph - N/A Fog Fog
5:52 AM 72.0 °F - 70.0 °F 93% 29.74 in 0.2 mi Calm Calm - N/A Fog Fog
5:59 AM 71.6 °F - 71.6 °F 100% 29.75 in 0.5 mi Calm Calm - N/A Fog Fog
6:15 AM 71.6 °F - 71.6 °F 100% 29.74 in 1.5 mi Calm Calm - N/A   Overcast
6:52 AM 73.0 °F - 71.1 °F 93% 29.74 in 2.0 mi Calm Calm - N/A   Overcast
7:12 AM 73.4 °F - 71.6 °F 94% 29.73 in 3.0 mi SE 4.6 mph - 0.00 in Rain Light Rain
7:35 AM 73.4 °F - 71.6 °F 94% 29.72 in 1.8 mi Calm Calm - 0.04 in Rain Rain
7:44 AM 73.4 °F - 71.6 °F 94% 29.72 in 3.0 mi Calm Calm - 0.05 in Rain Light Rain
7:52 AM 73.9 °F - 73.0 °F 97% 29.71 in 5.0 mi Calm Calm - 0.06 in Rain Light Rain
8:04 AM 73.4 °F - 71.6 °F 94% 29.71 in 1.8 mi SE 4.6 mph - 0.07 in Rain Heavy Rain
8:14 AM 73.4 °F - 71.6 °F 94% 29.71 in 4.0 mi SSE 6.9 mph - 0.08 in Rain Light Rain
8:26 AM 73.4 °F - 71.6 °F 94% 29.71 in 1.8 mi Variable 4.6 mph - 0.15 in Rain Heavy Rain
8:45 AM 75.2 °F - 73.4 °F 94% 29.69 in 2.0 mi Calm Calm - 0.25 in Rain Light Rain
8:52 AM 75.0 °F - 73.0 °F 94% 29.68 in 4.0 mi SE 3.5 mph - 0.26 in Rain Light Rain
9:00 AM 75.2 °F - 73.4 °F 94% 29.68 in 10.0 mi SSE 5.8 mph - 0.00 in   Overcast
9:08 AM 75.2 °F - 73.4 °F 94% 29.68 in 9.0 mi South 6.9 mph - 0.00 in Thunderstorm Thunderstorm
9:23 AM 75.2 °F - 73.4 °F 94% 29.68 in 9.0 mi SW 5.8 mph - 0.00 in   Overcast
9:52 AM 75.0 °F - 73.0 °F 94% 29.67 in 8.0 mi SSW 6.9 mph - 0.03 in Rain Light Rain
10:52 AM 77.0 °F - 73.9 °F 90% 29.65 in 10.0 mi SSW 8.1 mph - 0.01 in   Mostly Cloudy
11:03 AM 75.2 °F - 73.4 °F 94% 29.66 in 10.0 mi SSW 6.9 mph - N/A   Mostly Cloudy
11:52 AM 80.1 °F 84.2 °F 73.0 °F 79% 29.64 in 10.0 mi SW 11.5 mph 19.6 mph N/A   Mostly Cloudy
12:19 PM 82.4 °F 88.2 °F 73.4 °F 74% 29.63 in 10.0 mi SW 11.5 mph 19.6 mph N/A   Mostly Cloudy
12:41 PM 82.4 °F 88.2 °F 73.4 °F 74% 29.62 in 10.0 mi SSW 13.8 mph - N/A   Scattered Clouds
12:52 PM 82.0 °F 86.7 °F 72.0 °F 71% 29.61 in 10.0 mi SSW 13.8 mph 21.9 mph N/A   Mostly Cloudy
1:24 PM 80.6 °F 85.4 °F 73.4 °F 79% 29.61 in 10.0 mi SSW 9.2 mph 23.0 mph 0.00 in Rain Light Rain
1:52 PM 80.1 °F 84.2 °F 73.0 °F 79% 29.60 in 10.0 mi SSW 10.4 mph 17.3 mph 0.00 in   Overcast
2:44 PM 84.2 °F 90.9 °F 73.4 °F 70% 29.58 in 10.0 mi SW 18.4 mph 27.6 mph N/A   Mostly Cloudy
2:52 PM 82.9 °F 88.8 °F 73.0 °F 72% 29.58 in 10.0 mi SW 16.1 mph 26.5 mph N/A   Mostly Cloudy
2:59 PM 84.2 °F 90.9 °F 73.4 °F 70% 29.58 in 10.0 mi SW 17.3 mph 23.0 mph N/A   Mostly Cloudy
3:31 PM 82.4 °F 87.2 °F 71.6 °F 70% 29.57 in 10.0 mi SSW 17.3 mph 25.3 mph N/A   Mostly Cloudy
3:52 PM 82.9 °F 88.0 °F 72.0 °F 69% 29.56 in 10.0 mi SSW 16.1 mph 25.3 mph N/A   Mostly Cloudy
4:18 PM 84.2 °F 89.6 °F 71.6 °F 66% 29.57 in 10.0 mi SW 16.1 mph 23.0 mph N/A   Scattered Clouds
4:52 PM 82.9 °F 88.0 °F 72.0 °F 69% 29.56 in 10.0 mi SW 11.5 mph - N/A   Partly Cloudy
5:52 PM 81.0 °F 84.9 °F 71.1 °F 72% 29.56 in 10.0 mi SW 11.5 mph - N/A   Clear
6:52 PM 79.0 °F - 71.1 °F 77% 29.59 in 10.0 mi West 8.1 mph - N/A   Overcast
7:52 PM 75.9 °F - 69.1 °F 79% 29.59 in 10.0 mi Calm Calm - 0.00 in   Mostly Cloudy
8:52 PM 75.9 °F - 69.1 °F 79% 29.60 in 10.0 mi Calm Calm - N/A   Overcast
9:52 PM 75.0 °F - 71.1 °F 87% 29.60 in 10.0 mi Calm Calm - N/A   Overcast
10:52 PM 73.9 °F - 71.1 °F 91% 29.61 in 9.0 mi Calm Calm - N/A   Scattered Clouds
11:52 PM 73.9 °F - 71.1 °F 91% 29.60 in 7.0 mi Calm Calm - N/A   Mostly Cloudy